Погода в Сортавале

Погода в Сортавале : погода сейчас, прогноз погоды и архив. Всё, что Вы хотите узнать о погоде в Сортавале!

Хотите узнать прогноз погоды в Сортавале? Тогда Вам сюда: Погода в Сортавале

Поиск расширенной информации на нашем сайте:

Полезная информация:

Другие новости

Новости СМИ2

Главная страница сайта

Новости сайта

03.07.2017

Напоминаем, что на нашем специализированном сайте Метеоцентр.Азия вы можете получить высокодетализированные автоматические прогнозы погоды по пунктам России, СНГ и мира в авиационном формате (включающие направление и скорость ветра, видимость, явления погоды, количество и форму облачности, нижнюю и верхнюю границу облачности).

Рекомендуем:

Погода в Сортавале - сегодня

Время (UTC), дата Ветер
(°,м/с) 
Видим.   Явления Облачность Т
(°С)
Тd
(°С)
f(%) Тe
(°С)
Pmin
(гПа)
dP
(гПа)
Po
(мм)
O2
(г/м3)
Тmin Tmax R s Состояние
почвы
03 16.07.19 070 (В) 27000 м    4/0 средняя, верхняя 
[Ac trans|Ci fib]
+11 +10.2 95 +13  1011.3  0.2  757  291  +8.8         
06 16.07.19 080 (В) 20000 м    9/0 средняя, верхняя 
[Ac trans|Ci fib]
+15.4 +11.8 79 +19  1011.3  0.1  757  286  +8.8        влажная 
09 16.07.19 160 (Ю) 20000 м    9/6 1000 м кучево-дожд., верхняя 
[Cb cap|Ci fib]
+17.7 +11.5 67 +21  1012  0.7  757  284           
12 16.07.19 200 (Ю) 20000 м    3/3 1000 м кучево-дожд. 
[Cb cap]
+19.2 +9.8 54 +21  1011.8  -0.2  757  283           
15 16.07.19 100 (В) 20000 м    3/3 1000 м кучево-дожд. 
[Cb cap]
+19.4 +6.5 43 +20  1011.4  -0.4  757  284           
18 16.07.19 тихо ()   20000 м    3/0 верхняя 
[Ci sp]
+16.5 +10.7 69 +18  1011.4  757  286    +20.6       
21 16.07.19 040 (СВ) 20000 м    3/0 верхняя 
[Ci fib]
+11.5 +9.3 86 +13  1012.1  0.6  757  291           
00 17.07.19 030 (СВ) 20000 м    4/0 верхняя 
[Ci sp]
+11.4 +9 85 +13  1012.1  757  291           
03 17.07.19 тихо ()   20000 м    9/0 верхняя 
[Ci sp]
+12.6 +9.3 80 +13  1012  -0.1  757  290  +10         
06 17.07.19 тихо ()   20000 м    4/0 верхняя 
[Ci fib]
+17.5 +8.6 56 +18  1012  0.1  757  285  +10        влажная 
09 17.07.19 090 (В) 20000 м    9/1 1000 м средняя, верхняя 
[Cu hum|Ac trans|Ci fib]
+21.2 +7.9 42 +21  1011.6  -0.4  757  282           
12 17.07.19 090 (В) 20000 м    9/3 1000 м средняя, верхняя 
[Sc|Ac trans|Ci fib]
+21 +8.7 45 +21  1011.4  -0.2  757  282           
15 17.07.19 040 (СВ) 20000 м    9/3 1000 м средняя, верхняя 
[Sc|Ac trans|Ci fib]
+20.7 +7.6 43 +21  1010.7  -0.7  756  282           
18 17.07.19 050 (СВ) 20000 м    9/3 1000 м средняя, верхняя 
[Sc|Ac trans|Ci fib]
+18.1 +9.7 58 +20  1010.6  -0.1  756  284    +21.9       
21 17.07.19 080 (В) 20000 м    9/3 1000 м средняя, верхняя 
[Sc|Ac trans|Ci fib]
+15.6 +11.7 78 +19  1010.5  -0.1  756  286           
00 18.07.19 тихо ()   20000 м    10/10 1000 м кучево-дожд. 
[Cb cap]
+14.8 +11.8 82 +18  1010.4  -0.1  756  287           
03 18.07.19 тихо ()   20000 м    10/10 800 м 
[Sc]
+15.6 +12.5 82 +20  1009.8  -0.6  756  286  +14.5         
06 18.07.19 080 (В) 8000 м  слаб. ливневой дождь  10/10 400 м кучево-дожд. 
[Cb cap]
+15.3 +13.5 89 +23  1009.9  0.1  756  286  +14.5    0.0    влажная 
09 18.07.19 030 (СВ) 19000 м  в посл. час ливневой дождь  10/4 600 м кучево-дожд., средняя 
[Cb cap|As op]
+17.4 +15.4 88 +27  1009.7  -0.2  756  283           
12 18.07.19 010 (С) 20000 м  в посл. час ливневой дождь  10/8 500 м кучево-дожд., средняя 
[Cb cap|As op]
+16.5 +15.4 93 +26  1009.4  -0.3  755  284           
15 18.07.19 360 (С) 9000 м  слаб. ливневой дождь  10/10 960 м кучево-дожд. 
[Cb cap]
+16.2 +14.9 92 +25  1009.1  -0.3  755  284      13     
18 18.07.19 020 (С) 5000 м  слаб. ливневой дождь  10/8 960 м кучево-дожд., средняя 
[Cb cap|As op]
+16 +14.7 92 +24  1008.8  -0.3  755  284    +18.8  17     
21 18.07.19 030 (СВ) 4200 м  слаб. ливневой дождь  10/10 540 м кучево-дожд. 
[Cb cap]
+15.5 +14.4 93 +24  1008  -0.8  754  285           
00 19.07.19 030 (СВ) 4300 м  слаб. ливневой дождь  10/10 400 м кучево-дожд. 
[Cb cap]
+15 +14 94 +22  1007.6  -0.4  754  285           
03 19.07.19 020 (С) 15000 м  в посл. час ливневой дождь  10/10 930 м кучево-дожд. 
[Cb cap]
+15 +13.7 92 +21  1007.3  -0.3  754  285  +14.8       
Время (UTC), дата Ветер
(°,м/с) 
Видим.   Явления Облачность Т
(°С)
Тd
(°С)
f(%) Тe
(°С)
Pmin
(гПа)
dP
(гПа)
Po
(мм)
O2
(г/м3)
Тmin Tmax R s Состояние
почвы

Для получения пояснительной информации подведите курсор к названию столбца.

ПОГОДА в Сортавале - архив

Всё, что Вы хотите узнать о погоде в Сортавале - удобно и подробно!

Выберите нужную дату (начиная с 1 января 2018* года) и нажмите кнопку "Найти".
Будут отображены архивные сводки погоды по пункту Сортавала, начиная с указанной даты.


Отображать данные в формате CSV (для использования в таблицах Excel)


Внимание! Наш архив погоды предназначен исключительно для личного некоммерческого использования в познавательных целях. Если Вам необходимы официальные справки о состоянии погоды (для производственных, юридических, коммерческих и т.п. целей), обращайтесь в органы Росгидромета.

*Примечание: данная дата относится к архиву по метеостанциям СССР (Россия, СНГ, Балтия).
Архив по метеостанциям Зарубежной Европы и Азии (кроме Китая) хранится 10 дней, по другим регионам земного шара (Китай, Африка, Америка, Австралия, Океания) - 1 день.

Сортавала - район местоположения метеостанции


Название, широта, долгота, высота метеостанции:
Сортавала 61.7°ш. 30.7°д. 19 м над ур. моря [Российская Федерация]

Дополнительная информация

В oтличие oт бoльшинства пoгoдных сайтoв мы публикуем пoдрoбную метеoинфoрмацию в детальнoм прoфессиoнальнoм фoрмате.

Характеристики температуры и влажнoсти вoздуха измеряются на высoте 2 м в тени вдали oт зданий и деревьев.
Скoрoсть ветра измеряется на высoте 10 м (на урoвне рoста челoвека скoрoсть ветра ниже в 1.5-2 раза). Если метеoстанция нахoдится в гoрoде или в лесу, тo скoрoсть ветра занижена на 2-4 м/с пo сравнению с oткрытым местoм. Скoрoсть ветра над акватoриями крупных рек и oзёр, а также на вершинах хoлмoв на 2-5 м/с выше, чем в oбычных услoвиях.
Атмoсфернoе давление в разных тoчках местнoсти мoжет значительнo oтличаться oт давления на метеoстанции, в зависимoсти oт услoвий рельефа (при пoдъёме на 10 м давление пoнижается примернo на 1 мм рт.ст.).